Location: 22
(39.7117°N, 89.5929°W)
Time: 06:55:56
(UTC-05:00)

ISS - Pass Details

Date: 04 October 2021
Orbit: 417 x 423 km, 51.6° (Epoch: 16 October)

Event Time Altitude Azimuth Distance (km) Brightness Sun altitude
Rises 20:19:05 0° 303° (WNW) 2,363 1.3 -20.7°
Reaches altitude 10° 20:21:13 10° 297° (WNW) 1,497 0.1 -21.1°
Maximum altitude 20:24:27 47° 223° (SW) 565 -3.0 -21.7°
Enters shadow 20:24:28 47° 222° (SW) 565 -3.0 -21.7°
